TimeMDT,TemperatureF,Dew PointF,Humidity,Sea Level PressureIn,VisibilityMPH,Wind Direction,Wind SpeedMPH,Gust SpeedMPH,PrecipitationIn,Events,Conditions,WindDirDegrees,DateUTC
12:14 AM,6.8,3.2,85,30.06,3.0,North,23.0,-,0.00,Snow,Light Snow,350,2013-04-10 06:14:00
12:22 AM,6.8,3.2,85,30.06,3.0,North,21.9,-,0.00,Snow,Light Snow,350,2013-04-10 06:22:00
12:31 AM,6.8,3.2,85,30.06,2.5,North,21.9,34.5,0.00,Snow,Light Snow,350,2013-04-10 06:31:00
12:55 AM,7.0,3.9,87,30.30,3.0,North,18.4,24.2,0.00,Snow,Light Snow,350,2013-04-10 06:55:00
1:04 AM,6.8,3.2,85,30.08,2.5,NNW,15.0,24.2,0.00,Snow,Light Snow,340,2013-04-10 07:04:00
1:19 AM,6.8,3.2,85,30.09,2.5,North,18.4,24.2,0.00,Snow,Light Snow,350,2013-04-10 07:19:00
1:26 AM,6.8,3.2,85,30.08,3.0,North,13.8,25.3,0.00,Snow,Light Snow,350,2013-04-10 07:26:00
1:48 AM,6.8,3.2,85,30.05,2.5,NNW,21.9,28.8,0.00,Snow,Light Snow,340,2013-04-10 07:48:00
1:55 AM,7.0,3.0,84,30.25,3.0,NNW,23.0,28.8,0.00,Snow,Light Snow,330,2013-04-10 07:55:00
2:02 AM,6.8,3.2,85,30.03,2.5,NNW,25.3,-,0.00,Snow,Light Snow,330,2013-04-10 08:02:00
2:08 AM,6.8,3.2,85,30.05,3.0,NNW,19.6,31.1,0.00,Snow,Light Snow,330,2013-04-10 08:08:00
2:28 AM,6.8,3.2,85,30.04,2.5,NNW,20.7,-,0.00,Snow,Light Snow,330,2013-04-10 08:28:00
2:36 AM,6.8,3.2,85,30.04,4.0,NNW,19.6,-,0.00,Snow,Light Snow,330,2013-04-10 08:36:00
2:55 AM,7.0,3.0,84,30.25,4.0,NNW,21.9,28.8,0.00,Snow,Light Snow,330,2013-04-10 08:55:00
3:31 AM,6.8,3.2,85,30.05,5.0,NNW,16.1,26.5,0.00,Snow,Light Snow,330,2013-04-10 09:31:00
3:38 AM,6.8,3.2,85,30.04,5.0,NW,20.7,26.5,0.00,,Overcast,320,2013-04-10 09:38:00
3:55 AM,6.1,3.0,87,30.24,5.0,NW,21.9,-,0.00,,Overcast,320,2013-04-10 09:55:00
4:03 AM,6.8,3.2,85,30.03,5.0,NW,21.9,-,0.00,,Overcast,320,2013-04-10 10:03:00
4:45 AM,6.8,3.2,85,30.02,10.0,NNW,17.3,-,0.00,,Overcast,330,2013-04-10 10:45:00
4:55 AM,6.1,3.0,87,30.25,10.0,NNW,15.0,-,0.00,,Overcast,330,2013-04-10 10:55:00
5:08 AM,6.8,3.2,85,30.04,6.0,NW,16.1,-,N/A,,Overcast,320,2013-04-10 11:08:00
5:40 AM,6.8,3.2,85,30.03,6.0,NW,12.7,-,N/A,,Overcast,310,2013-04-10 11:40:00
5:55 AM,5.0,1.9,87,30.27,8.0,WNW,11.5,-,N/A,,Overcast,300,2013-04-10 11:55:00
6:29 AM,5.0,1.4,85,30.05,3.0,NW,12.7,-,N/A,,Overcast,320,2013-04-10 12:29:00
6:55 AM,6.1,3.0,87,30.26,4.0,NW,17.3,-,N/A,,Overcast,320,2013-04-10 12:55:00
7:55 AM,8.1,3.9,83,30.26,5.0,NW,20.7,-,0.00,,Overcast,320,2013-04-10 13:55:00
8:55 AM,10.9,5.0,77,30.26,10.0,NNW,24.2,28.8,N/A,,Mostly Cloudy,340,2013-04-10 14:55:00
9:55 AM,12.0,7.0,80,30.24,5.0,NNW,24.2,38.0,0.00,Snow,Light Snow,340,2013-04-10 15:55:00
10:03 AM,12.2,6.8,79,30.03,7.0,NNW,25.3,38.0,0.00,Snow,Light Snow,340,2013-04-10 16:03:00
11:55 AM,17.1,10.9,77,30.19,6.0,NNW,27.6,40.3,0.00,Snow,Light Snow,340,2013-04-10 17:55:00
12:14 PM,17.6,12.2,79,30.00,2.5,NNW,27.6,40.3,0.00,Snow,Light Snow,330,2013-04-10 18:14:00
12:21 PM,17.6,10.4,73,30.00,6.0,NNW,31.1,40.3,0.00,Snow,Light Snow,340,2013-04-10 18:21:00
12:52 PM,19.4,12.2,74,29.98,2.5,NNW,31.1,41.4,0.00,Snow,Light Snow,340,2013-04-10 18:52:00
1:18 PM,19.4,12.2,74,29.98,6.0,NNW,29.9,41.4,0.00,Snow,Light Snow,340,2013-04-10 19:18:00
1:29 PM,19.4,14.0,80,29.98,2.5,NNW,31.1,41.4,0.00,Snow,Light Snow,340,2013-04-10 19:29:00
1:36 PM,21.2,14.0,74,29.98,3.0,NNW,32.2,41.4,0.00,Snow,Light Snow,340,2013-04-10 19:36:00
1:43 PM,19.4,12.2,74,29.98,1.8,NNW,31.1,41.4,0.00,Snow,Light Snow,340,2013-04-10 19:43:00
1:55 PM,19.9,15.1,81,30.15,1.0,NNW,28.8,39.1,0.00,Snow,Light Snow,340,2013-04-10 19:55:00
2:21 PM,19.4,14.0,80,29.99,3.0,North,26.5,40.3,0.00,Snow,Light Snow,350,2013-04-10 20:21:00
2:55 PM,21.0,12.9,71,30.14,9.0,North,28.8,39.1,0.00,Snow,Light Snow,350,2013-04-10 20:55:00
3:55 PM,21.9,15.1,75,30.13,4.0,North,24.2,38.0,0.00,Snow,Light Snow,350,2013-04-10 21:55:00
4:55 PM,21.0,12.9,71,30.12,9.0,North,21.9,36.8,0.00,,Overcast,350,2013-04-10 22:55:00
5:20 PM,21.2,12.2,68,29.94,10.0,North,15.0,28.8,N/A,,Overcast,350,2013-04-10 23:20:00
5:55 PM,19.9,10.9,68,30.12,10.0,NNW,20.7,27.6,N/A,,Overcast,340,2013-04-10 23:55:00
6:17 PM,19.4,12.2,74,29.93,9.0,NNW,15.0,28.8,0.00,Snow,Light Snow,340,2013-04-11 00:17:00
6:55 PM,19.0,10.9,71,30.11,10.0,NNW,10.4,28.8,0.00,,Scattered Clouds,330,2013-04-11 00:55:00
7:55 PM,16.0,10.9,81,30.12,10.0,NW,9.2,-,N/A,,Clear,320,2013-04-11 01:55:00
8:55 PM,12.0,9.0,88,30.14,10.0,NW,4.6,-,N/A,,Clear,320,2013-04-11 02:55:00
9:55 PM,10.9,9.0,92,30.13,10.0,WSW,3.5,-,N/A,,Clear,250,2013-04-11 03:55:00
10:55 PM,10.9,8.1,88,30.10,10.0,Calm,Calm,-,N/A,,Scattered Clouds,0,2013-04-11 04:55:00
11:55 PM,7.0,5.0,92,30.08,10.0,NNW,3.5,-,N/A,,Clear,340,2013-04-11 05:55:00